Weather History for Decorah, IA

Change the Weather History Date:

Tuesday, December 24, 2013

  Actual Average Record
Temperature  
Mean Temperature -2 °F -  
Max Temperature 8 °F 23 °F 45 °F (1955)
Min Temperature -13 °F 7 °F -25 °F (1983)
Degree Days  
Heating Degree Days 68    
Moisture  
Dew Point -10 °F    
Average Humidity 71    
Maximum Humidity 85    
Minimum Humidity 61    
Precipitation  
Precipitation 0.00 in - - ()
Sea Level Pressure  
Sea Level Pressure 30.35 in    
Wind  
Wind Speed 4 mph (South)    
Max Wind Speed 14 mph    
Max Gust Speed 18 mph    
Visibility 8 miles    
Events Snow    
Averages and records for this station are not official NWS values.
T = Trace of Precipitation, MM = Missing Value Source: NWS Daily Summary

Daily Weather History Graph

Daily Weather History Graph

Search for Another Location

Airport:

Trip Planner

Search our weather history database for the weather conditions in past years. The results will help you decide how hot, cold, wet, or windy it might be!

Date:

Astronomy

Dec. 24, 2013 Rise Set
Actual Time 7:37 AM CST 4:36 PM CST
Civil Twilight 7:04 AM CST 5:08 PM CST
Nautical Twilight 6:28 AM CST 5:44 PM CST
Astronomical Twilight 5:54 AM CST 6:19 PM CST
Moon 11:56 PM CST (12/24) 11:20 AM CST (12/24)
Length of Visible Light 10h 03m
Length of Day
8h 58m
Waning Gibbous, 58% of the Moon is Illuminated
Dec 24
Waning Gibbous
Dec 25
Last Quarter
Jan 1
New
Jan 7
First Quarter
Jan 15
Full

Hourly Weather History & Observations

Time (CST) Temp. Windchill Dew Point Humidity Pressure Visibility Wind Dir Wind Speed Gust Speed Precip Events Conditions
12:15 AM -9.4 °F -18.6 °F -16.6 °F 71% 30.44 in 10.0 mi WNW 3.5 mph - N/A   Clear
12:35 AM -9.4 °F - -16.6 °F 71% 30.43 in 10.0 mi Calm Calm - N/A   Clear
12:55 AM -9.4 °F -20.9 °F -16.6 °F 71% 30.44 in 10.0 mi West 4.6 mph - N/A   Clear
1:15 AM -9.4 °F - -16.6 °F 71% 30.44 in 10.0 mi Calm Calm - N/A   Clear
1:35 AM -11.2 °F -23.0 °F -18.4 °F 70% 30.45 in 10.0 mi West 4.6 mph - N/A   Clear
1:55 AM -9.4 °F -18.6 °F -16.6 °F 71% 30.45 in 10.0 mi West 3.5 mph - N/A   Clear
2:15 AM -9.4 °F - -16.6 °F 71% 30.44 in 10.0 mi Calm Calm - N/A   Clear
2:35 AM -11.2 °F - -18.4 °F 70% 30.44 in 10.0 mi Calm Calm - N/A   Clear
2:55 AM -11.2 °F -20.6 °F -18.4 °F 70% 30.45 in 10.0 mi West 3.5 mph - N/A   Clear
3:15 AM -11.2 °F - -18.4 °F 70% 30.45 in 10.0 mi Calm Calm - N/A   Clear
3:35 AM -11.2 °F - -18.4 °F 70% 30.44 in 10.0 mi Calm Calm - N/A   Clear
3:55 AM -11.2 °F -23.0 °F -18.4 °F 70% 30.45 in 10.0 mi West 4.6 mph - N/A   Clear
4:15 AM -11.2 °F - -18.4 °F 70% 30.44 in 10.0 mi Calm Calm - N/A   Clear
4:35 AM -11.2 °F - -18.4 °F 70% 30.44 in 10.0 mi Calm Calm - N/A   Clear
4:55 AM -13.0 °F - -20.2 °F 70% 30.43 in 10.0 mi Calm Calm - N/A   Clear
5:15 AM -13.0 °F -25.1 °F -20.2 °F 70% 30.44 in 10.0 mi WSW 4.6 mph - N/A   Clear
5:35 AM -11.2 °F - -18.4 °F 70% 30.43 in 10.0 mi Calm Calm - N/A   Clear
5:55 AM -11.2 °F - -18.4 °F 70% 30.43 in 10.0 mi Calm Calm - N/A   Clear
6:15 AM -13.0 °F -27.0 °F -20.2 °F 70% 30.45 in 10.0 mi WSW 5.8 mph - N/A   Clear
6:35 AM -13.0 °F - -20.2 °F 70% 30.43 in 10.0 mi Calm Calm - N/A   Clear
6:55 AM -13.0 °F - -20.2 °F 70% 30.44 in 10.0 mi Calm Calm - N/A   Clear
7:15 AM -13.0 °F - -20.2 °F 70% 30.44 in 10.0 mi Calm Calm - N/A   Clear
7:35 AM -13.0 °F - -20.2 °F 70% 30.44 in 10.0 mi Calm Calm - N/A   Clear
7:55 AM -13.0 °F - -20.2 °F 70% 30.44 in 10.0 mi Calm Calm - N/A   Clear
8:15 AM -11.2 °F - -20.2 °F 64% 30.45 in 10.0 mi Calm Calm - N/A   Clear
8:35 AM -11.2 °F - -18.4 °F 70% 30.44 in 10.0 mi Calm Calm - N/A   Clear
8:55 AM -11.2 °F - -18.4 °F 70% 30.45 in 10.0 mi Calm Calm - N/A   Clear
9:15 AM -9.4 °F -20.9 °F -16.6 °F 71% 30.44 in 10.0 mi SSE 4.6 mph - N/A   Clear
9:35 AM -7.6 °F - -16.6 °F 65% 30.44 in 10.0 mi Calm Calm - N/A   Clear
9:55 AM -5.8 °F -16.7 °F -14.8 °F 65% 30.43 in 10.0 mi SE 4.6 mph - N/A   Clear
10:15 AM -5.8 °F -19.9 °F -14.8 °F 65% 30.43 in 10.0 mi SSE 6.9 mph - N/A   Clear
10:35 AM -5.8 °F -19.9 °F -13.0 °F 71% 30.42 in 10.0 mi SSE 6.9 mph - N/A   Clear
10:55 AM -2.2 °F -16.8 °F -11.2 °F 66% 30.39 in 10.0 mi SE 8.1 mph - N/A   Clear
11:15 AM -2.2 °F -18.0 °F -11.2 °F 66% 30.41 in 10.0 mi SSE 9.2 mph - N/A   Clear
11:35 AM -0.4 °F -14.7 °F -9.4 °F 66% 30.38 in 10.0 mi SE 8.1 mph - N/A   Clear
11:55 AM -0.4 °F -15.7 °F -9.4 °F 66% 30.36 in 10.0 mi SE 9.2 mph 15.0 mph N/A   Clear
12:15 PM 1.4 °F -16.1 °F -9.4 °F 61% 30.35 in 10.0 mi SSE 12.7 mph - N/A   Clear
12:35 PM 3.2 °F -7.8 °F -7.6 °F 61% 30.38 in 10.0 mi Variable 5.8 mph 12.7 mph N/A   Clear
12:55 PM 1.4 °F -12.5 °F -9.4 °F 61% 30.37 in 10.0 mi SSE 8.1 mph - N/A   Clear
1:35 PM 3.2 °F -10.3 °F -5.8 °F 66% 30.35 in 10.0 mi SSE 8.1 mph - N/A   Clear
1:55 PM 5.0 °F -9.1 °F -5.8 °F 61% 30.35 in 10.0 mi SSW 9.2 mph - N/A   Clear
2:15 PM 5.0 °F -10.0 °F -5.8 °F 61% 30.35 in 10.0 mi SSW 10.4 mph - N/A   Mostly Cloudy
2:35 PM 3.2 °F -12.2 °F -5.8 °F 66% 30.33 in 10.0 mi South 10.4 mph - N/A   Overcast
2:55 PM 3.2 °F -10.3 °F -4.0 °F 72% 30.32 in 10.0 mi South 8.1 mph - N/A   Overcast
3:15 PM 5.0 °F -8.1 °F -4.0 °F 66% 30.30 in 10.0 mi SSE 8.1 mph 16.1 mph N/A   Overcast
3:35 PM 5.0 °F -9.1 °F -4.0 °F 66% 30.30 in 10.0 mi South 9.2 mph 17.3 mph N/A   Overcast
3:55 PM 5.0 °F -6.9 °F -4.0 °F 66% 30.31 in 10.0 mi SSE 6.9 mph - N/A   Overcast
4:15 PM 5.0 °F -10.0 °F -4.0 °F 66% 30.30 in 10.0 mi SSE 10.4 mph - N/A   Overcast
4:35 PM 5.0 °F -10.0 °F -4.0 °F 66% 30.28 in 10.0 mi SE 10.4 mph - N/A   Overcast
4:55 PM 5.0 °F -8.1 °F -4.0 °F 66% 30.27 in 10.0 mi SE 8.1 mph 15.0 mph N/A   Overcast
5:15 PM 5.0 °F -9.1 °F -4.0 °F 66% 30.26 in 10.0 mi SE 9.2 mph 16.1 mph N/A   Overcast
5:35 PM 5.0 °F -10.0 °F -4.0 °F 66% 30.26 in 8.0 mi SSE 10.4 mph - N/A Snow Light Snow
5:55 PM 5.0 °F -9.1 °F -4.0 °F 66% 30.25 in 10.0 mi SSE 9.2 mph 16.1 mph N/A   Overcast
6:15 PM 6.8 °F -7.8 °F -2.2 °F 67% 30.26 in 3.0 mi SSE 10.4 mph - N/A Snow Light Snow
6:35 PM 5.0 °F -8.1 °F -2.2 °F 72% 30.26 in 2.0 mi SSE 8.1 mph 13.8 mph N/A Snow Light Snow
6:55 PM 5.0 °F -9.1 °F -0.4 °F 78% 30.25 in 1.5 mi SE 9.2 mph 15.0 mph N/A Snow Light Snow
7:15 PM 5.0 °F -8.1 °F -0.4 °F 78% 30.25 in 1.0 mi SSE 8.1 mph 17.3 mph N/A Snow Light Snow
7:35 PM 5.0 °F -9.1 °F -0.4 °F 78% 30.25 in 1.8 mi SSE 9.2 mph - N/A Snow Light Snow
7:55 PM 5.0 °F -9.1 °F -0.4 °F 78% 30.24 in 2.0 mi SSE 9.2 mph 18.4 mph N/A Snow Light Snow
8:15 PM 5.0 °F -10.8 °F -0.4 °F 78% 30.23 in 1.5 mi SSE 11.5 mph 18.4 mph N/A Snow Light Snow
8:35 PM 5.0 °F -12.3 °F -0.4 °F 78% 30.22 in 1.8 mi South 13.8 mph - N/A Snow Light Snow
8:55 PM 5.0 °F -10.8 °F -0.4 °F 78% 30.22 in 0.8 mi South 11.5 mph 17.3 mph N/A Snow Light Snow
9:15 PM 6.8 °F -7.8 °F 1.4 °F 79% 30.21 in 2.5 mi South 10.4 mph 17.3 mph N/A   Haze
9:35 PM 6.8 °F -6.9 °F 1.4 °F 79% 30.21 in 4.0 mi South 9.2 mph 16.1 mph N/A Snow Light Snow
9:55 PM 6.8 °F -7.8 °F 1.4 °F 79% 30.21 in 4.0 mi South 10.4 mph - N/A   Haze
10:15 PM 6.8 °F -6.9 °F 3.2 °F 85% 30.20 in 1.5 mi South 9.2 mph - N/A Snow Light Snow
10:35 PM 8.6 °F -4.7 °F 3.2 °F 79% 30.19 in 2.5 mi South 9.2 mph - N/A   Haze
10:55 PM 8.6 °F -5.5 °F 3.2 °F 79% 30.19 in 3.0 mi South 10.4 mph - N/A   Haze
11:15 PM 8.6 °F -4.7 °F 3.2 °F 79% 30.18 in 2.0 mi South 9.2 mph - N/A Snow Light Snow
11:35 PM 8.6 °F -4.7 °F 5.0 °F 85% 30.17 in 1.2 mi South 9.2 mph - N/A Snow Light Snow
11:55 PM 8.6 °F -4.7 °F 5.0 °F 85% 30.16 in 2.5 mi South 9.2 mph - N/A Snow Light Snow